This is the latest recevied weather packets stored in our database for station/object N4NVD-13. If no packets are shown the sender has not sent any weather packets the latest 10 day(s).
| Time | Temp. | Humidity | Pressure | Rain* | Wind** | Luminosity | Snow |
|---|---|---|---|---|---|---|---|
| 1778188566 | 18.89° C | 78% | 1014.9 hPa | 0 mm | - | 116 W/m² | - |
| 1778188262 | 18.89° C | 78% | 1015 hPa | 0 mm | - | 117 W/m² | - |
| 1778187960 | 18.89° C | 77% | 1014.7 hPa | 0 mm | - | 141 W/m² | - |
| 1778187656 | 19.44° C | 79% | 1014.6 hPa | 0 mm | - | 138 W/m² | - |
| 1778187353 | 18.89° C | 78% | 1014.6 hPa | 0 mm | - | 153 W/m² | - |
| 1778187049 | 18.89° C | 79% | 1014.8 hPa | 0 mm | - | 141 W/m² | - |
| 1778186745 | 18.89° C | 79% | 1014.9 hPa | 0 mm | - | 103 W/m² | - |
| 1778186443 | 18.89° C | 79% | 1014.3 hPa | 0 mm | - | 71 W/m² | - |
| 1778186141 | 18.89° C | 78% | 1014.1 hPa | 0 mm | - | 73 W/m² | - |
| 1778185838 | 18.89° C | 78% | 1014.8 hPa | 0 mm | - | 78 W/m² | - |
| 1778185534 | 18.89° C | 79% | 1014.8 hPa | 0 mm | - | 100 W/m² | - |
| 1778185230 | 19.44° C | 77% | 1015.2 hPa | 0 mm | - | 133 W/m² | - |
| 1778184926 | 19.44° C | 78% | 1015.5 hPa | 0 mm | - | 184 W/m² | - |
| 1778184622 | 18.89° C | 77% | 1015.6 hPa | 0 mm | - | 193 W/m² | - |
| 1778184317 | 19.44° C | 77% | 1015.7 hPa | 0 mm | - | 146 W/m² | - |
| 1778184014 | 19.44° C | 78% | 1015.5 hPa | 0 mm | - | 127 W/m² | - |
| 1778183711 | 19.44° C | 78% | 1015.5 hPa | 0 mm | - | 126 W/m² | - |
| 1778183409 | 19.44° C | 78% | 1015.8 hPa | 0 mm | - | 120 W/m² | - |
| 1778183105 | 19.44° C | 78% | 1015.9 hPa | 0 mm | - | 114 W/m² | - |
| 1778182801 | 20° C | 77% | 1015.5 hPa | 0 mm | - | 124 W/m² | - |
| 1778182498 | 20° C | 78% | 1015.8 hPa | 0 mm | - | 192 W/m² | - |
| 1778182195 | 20° C | 77% | 1015.3 hPa | 0 mm | - | 214 W/m² | - |
| 1778181891 | 20° C | 76% | 1015.7 hPa | 0 mm | - | 229 W/m² | - |
| 1778181588 | 20.56° C | 75% | 1015.5 hPa | 0 mm | - | 279 W/m² | - |
| 1778181284 | 21.11° C | 74% | 1016 hPa | 0 mm | - | 321 W/m² | - |
* Rain latest hour (hover to see other rain measurements)
** Current wind speed in m/s (hover to see current wind gust speed)